TimeCST,TemperatureF,Dew PointF,Humidity,Sea Level PressureIn,VisibilityMPH,Wind Direction,Wind SpeedMPH,Gust SpeedMPH,PrecipitationIn,Events,Conditions,WindDirDegrees,DateUTC
12:53 AM,44.1,35.1,71,30.28,10.0,SE,3.5,-,N/A,,Clear,130,2013-01-23 06:53:00
1:53 AM,41.0,35.1,79,30.28,10.0,Calm,Calm,-,N/A,,Clear,0,2013-01-23 07:53:00
2:53 AM,42.1,36.0,79,30.27,10.0,SE,3.5,-,N/A,,Clear,140,2013-01-23 08:53:00
3:53 AM,41.0,36.0,82,30.27,10.0,Calm,Calm,-,N/A,,Clear,0,2013-01-23 09:53:00
4:53 AM,42.1,37.0,82,30.30,10.0,Calm,Calm,-,N/A,,Overcast,0,2013-01-23 10:53:00
5:53 AM,39.9,36.0,86,30.31,10.0,Calm,Calm,-,N/A,,Scattered Clouds,0,2013-01-23 11:53:00
6:53 AM,37.9,35.1,89,30.32,10.0,Calm,Calm,-,N/A,,Scattered Clouds,0,2013-01-23 12:53:00
7:53 AM,43.0,39.0,86,30.32,10.0,Calm,Calm,-,N/A,,Mostly Cloudy,0,2013-01-23 13:53:00
8:53 AM,46.9,43.0,86,30.32,10.0,SSE,4.6,-,N/A,,Mostly Cloudy,150,2013-01-23 14:53:00
9:53 AM,55.9,48.9,77,30.32,10.0,SSW,8.1,-,N/A,,Partly Cloudy,200,2013-01-23 15:53:00
10:53 AM,62.1,52.0,70,30.32,10.0,SSW,10.4,-,N/A,,Clear,210,2013-01-23 16:53:00
11:53 AM,66.0,51.1,59,30.30,10.0,SW,10.4,-,N/A,,Partly Cloudy,230,2013-01-23 17:53:00
12:53 PM,69.1,48.9,49,30.25,10.0,SSW,16.1,-,N/A,,Partly Cloudy,210,2013-01-23 18:53:00
1:53 PM,71.1,50.0,47,30.22,10.0,SSW,13.8,19.6,N/A,,Clear,210,2013-01-23 19:53:00
2:53 PM,72.0,51.1,48,30.21,10.0,SSW,10.4,-,N/A,,Clear,200,2013-01-23 20:53:00
4:53 PM,69.1,48.0,47,30.20,10.0,SW,10.4,-,N/A,,Clear,220,2013-01-23 22:53:00
5:53 PM,66.0,48.0,52,30.19,10.0,South,8.1,-,N/A,,Clear,190,2013-01-23 23:53:00
6:53 PM,59.0,46.0,62,30.20,10.0,SSE,5.8,-,N/A,,Clear,150,2013-01-24 00:53:00
7:53 PM,59.0,46.0,62,30.20,10.0,SSE,8.1,-,N/A,,Clear,160,2013-01-24 01:53:00
8:53 PM,57.9,48.0,70,30.21,10.0,South,6.9,-,N/A,,Clear,190,2013-01-24 02:53:00
9:53 PM,57.9,48.9,72,30.22,10.0,South,5.8,-,N/A,,Clear,170,2013-01-24 03:53:00
10:53 PM,59.0,50.0,72,30.22,10.0,South,6.9,-,N/A,,Clear,170,2013-01-24 04:53:00
11:53 PM,57.0,51.1,81,30.23,10.0,SSE,4.6,-,N/A,,Clear,150,2013-01-24 05:53:00